owner,sensor,date,latitude,longitude,air_temperature,qcFlag 
DISL,ioos:station:DISL:DISL:1,2016-01-01T06:30:00Z,30.2513,-88.0778,13.56,1111122 
DISL,ioos:station:DISL:DISL:1,2016-01-01T07:00:00Z,30.2513,-88.0778,13.53,1111122 
DISL,ioos:station:DISL:DISL:1,2016-01-01T07:30:00Z,30.2513,-88.0778,13.25,1111122 
DISL,ioos:station:DISL:DISL:1,2016-01-01T08:00:00Z,30.2513,-88.0778,12.91,1111122 
DISL,ioos:station:DISL:DISL:1,2016-01-01T08:30:00Z,30.2513,-88.0778,12.33,1111122 
DISL,ioos:station:DISL:DISL:1,2016-01-01T09:00:00Z,30.2513,-88.0778,12.22,1111122 
DISL,ioos:station:DISL:DISL:1,2016-01-01T09:30:00Z,30.2513,-88.0778,12.06,1111122 
DISL,ioos:station:DISL:DISL:1,2016-01-01T10:00:00Z,30.2513,-88.0778,11.92,1111122 
DISL,ioos:station:DISL:DISL:1,2016-01-01T10:30:00Z,30.2513,-88.0778,11.65,1111122 
DISL,ioos:station:DISL:DISL:1,2016-01-01T11:00:00Z,30.2513,-88.0778,11.42,1111122 
DISL,ioos:station:DISL:DISL:1,2016-01-01T11:30:00Z,30.2513,-88.0778,10.9,1111122 
DISL,ioos:station:DISL:DISL:1,2016-01-01T12:00:00Z,30.2513,-88.0778,10.28,1111122 
DISL,ioos:station:DISL:DISL:1,2016-01-01T12:30:00Z,30.2513,-88.0778,10.59,1111122 
DISL,ioos:station:DISL:DISL:1,2016-01-01T13:00:00Z,30.2513,-88.0778,9.71,1111122 
DISL,ioos:station:DISL:DISL:1,2016-01-01T13:30:00Z,30.2513,-88.0778,9.2,1111122 
DISL,ioos:station:DISL:DISL:1,2016-01-01T14:00:00Z,30.2513,-88.0778,8.82,1111122 
DISL,ioos:station:DISL:DISL:1,2016-01-01T14:30:00Z,30.2513,-88.0778,8.69,1111122 
DISL,ioos:station:DISL:DISL:1,2016-01-01T15:00:00Z,30.2513,-88.0778,9.49,1111122 
DISL,ioos:station:DISL:DISL:1,2016-01-01T15:30:00Z,30.2513,-88.0778,9.86,1111122 
DISL,ioos:station:DISL:DISL:1,2016-01-01T16:00:00Z,30.2513,-88.0778,9.99,1111122 
DISL,ioos:station:DISL:DISL:1,2016-01-01T16:30:00Z,30.2513,-88.0778,10.4,1111122 
DISL,ioos:station:DISL:DISL:1,2016-01-01T17:00:00Z,30.2513,-88.0778,10.16,1111122 
DISL,ioos:station:DISL:DISL:1,2016-01-01T17:30:00Z,30.2513,-88.0778,9.13,1111122 
DISL,ioos:station:DISL:DISL:1,2016-01-01T18:00:00Z,30.2513,-88.0778,9.27,1111122 
DISL,ioos:station:DISL:DISL:1,2016-01-01T18:30:00Z,30.2513,-88.0778,9.2,1111122 
DISL,ioos:station:DISL:DISL:1,2016-01-01T19:00:00Z,30.2513,-88.0778,9.2,1111122 
DISL,ioos:station:DISL:DISL:1,2016-01-01T19:30:00Z,30.2513,-88.0778,9.75,1111122 
DISL,ioos:station:DISL:DISL:1,2016-01-01T20:00:00Z,30.2513,-88.0778,9.54,1111122 
DISL,ioos:station:DISL:DISL:1,2016-01-01T20:30:00Z,30.2513,-88.0778,9.48,1111122 
DISL,ioos:station:DISL:DISL:1,2016-01-01T21:00:00Z,30.2513,-88.0778,9.96,1111122 
DISL,ioos:station:DISL:DISL:1,2016-01-01T21:30:00Z,30.2513,-88.0778,9.92,1111122 
DISL,ioos:station:DISL:DISL:1,2016-01-01T22:00:00Z,30.2513,-88.0778,9.68,1111122 
DISL,ioos:station:DISL:DISL:1,2016-01-01T22:30:00Z,30.2513,-88.0778,9.79,1111122 
DISL,ioos:station:DISL:DISL:1,2016-01-01T23:00:00Z,30.2513,-88.0778,10.16,1111122 
DISL,ioos:station:DISL:DISL:1,2016-01-01T23:30:00Z,30.2513,-88.0778,9.75,1111122 
DISL,ioos:station:DISL:DISL:1,2016-01-02T00:00:00Z,30.2513,-88.0778,9.27,1111122 
DISL,ioos:station:DISL:DISL:1,2016-01-02T00:30:00Z,30.2513,-88.0778,9.06,1111122 
DISL,ioos:station:DISL:DISL:1,2016-01-02T01:00:00Z,30.2513,-88.0778,9.55,1111122 
DISL,ioos:station:DISL:DISL:1,2016-01-02T01:30:00Z,30.2513,-88.0778,9.17,1111122 
DISL,ioos:station:DISL:DISL:1,2016-01-02T02:00:00Z,30.2513,-88.0778,9.48,1111122 
DISL,ioos:station:DISL:DISL:1,2016-01-02T02:30:00Z,30.2513,-88.0778,9.48,1111122 
DISL,ioos:station:DISL:DISL:1,2016-01-02T03:00:00Z,30.2513,-88.0778,9.41,1111122 
DISL,ioos:station:DISL:DISL:1,2016-01-02T03:30:00Z,30.2513,-88.0778,9.54,1111122 
DISL,ioos:station:DISL:DISL:1,2016-01-02T04:00:00Z,30.2513,-88.0778,9.82,1111122 
DISL,ioos:station:DISL:DISL:1,2016-01-02T04:30:00Z,30.2513,-88.0778,9.61,1111122 
DISL,ioos:station:DISL:DISL:1,2016-01-02T05:00:00Z,30.2513,-88.0778,9.72,1111122 
DISL,ioos:station:DISL:DISL:1,2016-01-02T05:30:00Z,30.2513,-88.0778,9.2,1111122 
DISL,ioos:station:DISL:DISL:1,2016-01-02T06:00:00Z,30.2513,-88.0778,8.82,1111122 
DISL,ioos:station:DISL:DISL:1,2016-01-02T06:30:00Z,30.2513,-88.0778,9.17,1111122 
DISL,ioos:station:DISL:DISL:1,2016-01-02T07:00:00Z,30.2513,-88.0778,8.89,1111122 
DISL,ioos:station:DISL:DISL:1,2016-01-02T07:30:00Z,30.2513,-88.0778,9.1,1111122 
DISL,ioos:station:DISL:DISL:1,2016-01-02T08:00:00Z,30.2513,-88.0778,8.21,1111122 
DISL,ioos:station:DISL:DISL:1,2016-01-02T08:30:00Z,30.2513,-88.0778,8.05,1111122 
DISL,ioos:station:DISL:DISL:1,2016-01-02T09:00:00Z,30.2513,-88.0778,8.5,1111122 
DISL,ioos:station:DISL:DISL:1,2016-01-02T09:30:00Z,30.2513,-88.0778,8.26,1111122 
DISL,ioos:station:DISL:DISL:1,2016-01-02T10:00:00Z,30.2513,-88.0778,8.5,1111122 
DISL,ioos:station:DISL:DISL:1,2016-01-02T10:30:00Z,30.2513,-88.0778,8.46,1111122 
DISL,ioos:station:DISL:DISL:1,2016-01-02T11:00:00Z,30.2513,-88.0778,8.74,1111122 
DISL,ioos:station:DISL:DISL:1,2016-01-02T11:30:00Z,30.2513,-88.0778,8.74,1111122 
DISL,ioos:station:DISL:DISL:1,2016-01-02T12:00:00Z,30.2513,-88.0778,8.46,1111122 
DISL,ioos:station:DISL:DISL:1,2016-01-02T12:30:00Z,30.2513,-88.0778,8.26,1111122 
DISL,ioos:station:DISL:DISL:1,2016-01-02T13:00:00Z,30.2513,-88.0778,8.26,1111122 
DISL,ioos:station:DISL:DISL:1,2016-01-02T13:30:00Z,30.2513,-88.0778,8.43,1111122 
DISL,ioos:station:DISL:DISL:1,2016-01-02T14:00:00Z,30.2513,-88.0778,8.15,1111122 
DISL,ioos:station:DISL:DISL:1,2016-01-02T14:30:00Z,30.2513,-88.0778,8.19,1111122 
DISL,ioos:station:DISL:DISL:1,2016-01-02T15:00:00Z,30.2513,-88.0778,8.26,1111122 
DISL,ioos:station:DISL:DISL:1,2016-01-02T15:30:00Z,30.2513,-88.0778,8.32,1111122 
DISL,ioos:station:DISL:DISL:1,2016-01-02T16:00:00Z,30.2513,-88.0778,8.28,1111122 
DISL,ioos:station:DISL:DISL:1,2016-01-02T16:30:00Z,30.2513,-88.0778,8.35,1111122 
DISL,ioos:station:DISL:DISL:1,2016-01-02T17:00:00Z,30.2513,-88.0778,8.66,1111122 
DISL,ioos:station:DISL:DISL:1,2016-01-02T17:30:00Z,30.2513,-88.0778,8.93,1111122 
DISL,ioos:station:DISL:DISL:1,2016-01-02T18:00:00Z,30.2513,-88.0778,8.82,1111122 
DISL,ioos:station:DISL:DISL:1,2016-01-02T18:30:00Z,30.2513,-88.0778,9.1,1111122 
DISL,ioos:station:DISL:DISL:1,2016-01-02T19:00:00Z,30.2513,-88.0778,8.93,1111122 
DISL,ioos:station:DISL:DISL:1,2016-01-02T19:30:00Z,30.2513,-88.0778,9.3,1111122 
DISL,ioos:station:DISL:DISL:1,2016-01-02T20:00:00Z,30.2513,-88.0778,9.44,1111122 
DISL,ioos:station:DISL:DISL:1,2016-01-02T20:30:00Z,30.2513,-88.0778,9.58,1111122 
DISL,ioos:station:DISL:DISL:1,2016-01-02T21:00:00Z,30.2513,-88.0778,9.68,1111122 
DISL,ioos:station:DISL:DISL:1,2016-01-02T21:30:00Z,30.2513,-88.0778,9.82,1111122 
DISL,ioos:station:DISL:DISL:1,2016-01-02T22:00:00Z,30.2513,-88.0778,9.82,1111122 
DISL,ioos:station:DISL:DISL:1,2016-01-02T22:30:00Z,30.2513,-88.0778,10.03,1111122 
DISL,ioos:station:DISL:DISL:1,2016-01-02T23:00:00Z,30.2513,-88.0778,10.16,1111122 
DISL,ioos:station:DISL:DISL:1,2016-01-02T23:30:00Z,30.2513,-88.0778,10.06,1111122 
DISL,ioos:station:DISL:DISL:1,2016-01-03T00:00:00Z,30.2513,-88.0778,9.85,1111122 
DISL,ioos:station:DISL:DISL:1,2016-01-03T00:30:00Z,30.2513,-88.0778,9.89,1111122 
DISL,ioos:station:DISL:DISL:1,2016-01-03T01:00:00Z,30.2513,-88.0778,9.89,1111122 
DISL,ioos:station:DISL:DISL:1,2016-01-03T01:30:00Z,30.2513,-88.0778,9.82,1111122 
DISL,ioos:station:DISL:DISL:1,2016-01-03T02:00:00Z,30.2513,-88.0778,9.79,1111122 
DISL,ioos:station:DISL:DISL:1,2016-01-03T02:30:00Z,30.2513,-88.0778,10.3,1111122 
DISL,ioos:station:DISL:DISL:1,2016-01-03T03:00:00Z,30.2513,-88.0778,10.2,1111122 
DISL,ioos:station:DISL:DISL:1,2016-01-03T03:30:00Z,30.2513,-88.0778,10.09,1111122 
DISL,ioos:station:DISL:DISL:1,2016-01-03T04:00:00Z,30.2513,-88.0778,10.16,1111122 
DISL,ioos:station:DISL:DISL:1,2016-01-03T04:30:00Z,30.2513,-88.0778,10.16,1111122 
DISL,ioos:station:DISL:DISL:1,2016-01-03T05:00:00Z,30.2513,-88.0778,10.16,1111122 
DISL,ioos:station:DISL:DISL:1,2016-01-03T05:30:00Z,30.2513,-88.0778,9.92,1111122 
DISL,ioos:station:DISL:DISL:1,2016-01-03T06:00:00Z,30.2513,-88.0778,9.89,1111122 
DISL,ioos:station:DISL:DISL:1,2016-01-03T06:30:00Z,30.2513,-88.0778,9.58,1111122 
DISL,ioos:station:DISL:DISL:1,2016-01-03T07:00:00Z,30.2513,-88.0778,9.58,1111122 
DISL,ioos:station:DISL:DISL:1,2016-01-03T07:30:00Z,30.2513,-88.0778,9.51,1111122 
DISL,ioos:station:DISL:DISL:1,2016-01-03T08:00:00Z,30.2513,-88.0778,9.48,1111122 
DISL,ioos:station:DISL:DISL:1,2016-01-03T08:30:00Z,30.2513,-88.0778,9.41,1111122 
DISL,ioos:station:DISL:DISL:1,2016-01-03T09:00:00Z,30.2513,-88.0778,9.51,1111122 
DISL,ioos:station:DISL:DISL:1,2016-01-03T09:30:00Z,30.2513,-88.0778,9.2,1111122 
DISL,ioos:station:DISL:DISL:1,2016-01-03T10:00:00Z,30.2513,-88.0778,9.03,1111122 
DISL,ioos:station:DISL:DISL:1,2016-01-03T10:30:00Z,30.2513,-88.0778,8.93,1111122 
DISL,ioos:station:DISL:DISL:1,2016-01-03T11:00:00Z,30.2513,-88.0778,8.93,1111122 
DISL,ioos:station:DISL:DISL:1,2016-01-03T11:30:00Z,30.2513,-88.0778,8.83,1111122 
DISL,ioos:station:DISL:DISL:1,2016-01-03T12:00:00Z,30.2513,-88.0778,8.94,1111122 
DISL,ioos:station:DISL:DISL:1,2016-01-03T12:30:00Z,30.2513,-88.0778,9.0,1111122 
DISL,ioos:station:DISL:DISL:1,2016-01-03T13:00:00Z,30.2513,-88.0778,9.21,1111122 
DISL,ioos:station:DISL:DISL:1,2016-01-03T13:30:00Z,30.2513,-88.0778,9.17,1111122 
DISL,ioos:station:DISL:DISL:1,2016-01-03T14:00:00Z,30.2513,-88.0778,9.27,1111122 
DISL,ioos:station:DISL:DISL:1,2016-01-03T14:30:00Z,30.2513,-88.0778,8.79,1111122 
DISL,ioos:station:DISL:DISL:1,2016-01-03T15:00:00Z,30.2513,-88.0778,9.06,1111122 
DISL,ioos:station:DISL:DISL:1,2016-01-03T15:30:00Z,30.2513,-88.0778,9.44,1111122 
DISL,ioos:station:DISL:DISL:1,2016-01-03T16:00:00Z,30.2513,-88.0778,9.54,1111122 
DISL,ioos:station:DISL:DISL:1,2016-01-03T16:30:00Z,30.2513,-88.0778,9.54,1111122 
DISL,ioos:station:DISL:DISL:1,2016-01-03T17:00:00Z,30.2513,-88.0778,9.41,1111122 
DISL,ioos:station:DISL:DISL:1,2016-01-03T17:30:00Z,30.2513,-88.0778,9.47,1111122 
DISL,ioos:station:DISL:DISL:1,2016-01-03T18:00:00Z,30.2513,-88.0778,9.3,1111122 
DISL,ioos:station:DISL:DISL:1,2016-01-03T18:30:00Z,30.2513,-88.0778,9.61,1111122 
DISL,ioos:station:DISL:DISL:1,2016-01-03T19:00:00Z,30.2513,-88.0778,10.02,1111122 
DISL,ioos:station:DISL:DISL:1,2016-01-03T19:30:00Z,30.2513,-88.0778,10.42,1111122 
DISL,ioos:station:DISL:DISL:1,2016-01-03T20:00:00Z,30.2513,-88.0778,10.56,1111122 
DISL,ioos:station:DISL:DISL:1,2016-01-03T20:30:00Z,30.2513,-88.0778,11.25,1111122 
DISL,ioos:station:DISL:DISL:1,2016-01-03T21:00:00Z,30.2513,-88.0778,11.38,1111122 
DISL,ioos:station:DISL:DISL:1,2016-01-03T21:30:00Z,30.2513,-88.0778,11.69,1111122 
DISL,ioos:station:DISL:DISL:1,2016-01-03T22:00:00Z,30.2513,-88.0778,11.79,1111122 
DISL,ioos:station:DISL:DISL:1,2016-01-03T22:30:00Z,30.2513,-88.0778,11.65,1111122 
DISL,ioos:station:DISL:DISL:1,2016-01-03T23:00:00Z,30.2513,-88.0778,11.66,1111122 
DISL,ioos:station:DISL:DISL:1,2016-01-03T23:30:00Z,30.2513,-88.0778,11.42,1111122 
DISL,ioos:station:DISL:DISL:1,2016-01-04T00:00:00Z,30.2513,-88.0778,11.21,1111122 
DISL,ioos:station:DISL:DISL:1,2016-01-04T00:30:00Z,30.2513,-88.0778,11.18,1111122 
DISL,ioos:station:DISL:DISL:1,2016-01-04T01:00:00Z,30.2513,-88.0778,11.21,1111122 
DISL,ioos:station:DISL:DISL:1,2016-01-04T01:30:00Z,30.2513,-88.0778,11.04,1111122 
DISL,ioos:station:DISL:DISL:1,2016-01-04T02:00:00Z,30.2513,-88.0778,10.87,1111122 
DISL,ioos:station:DISL:DISL:1,2016-01-04T02:30:00Z,30.2513,-88.0778,10.77,1111122 
DISL,ioos:station:DISL:DISL:1,2016-01-04T03:00:00Z,30.2513,-88.0778,10.57,1111122 
DISL,ioos:station:DISL:DISL:1,2016-01-04T03:30:00Z,30.2513,-88.0778,10.47,1111122 
DISL,ioos:station:DISL:DISL:1,2016-01-04T04:00:00Z,30.2513,-88.0778,10.4,1111122 
DISL,ioos:station:DISL:DISL:1,2016-01-04T04:30:00Z,30.2513,-88.0778,10.4,1111122 
DISL,ioos:station:DISL:DISL:1,2016-01-04T05:00:00Z,30.2513,-88.0778,10.23,1111122 
DISL,ioos:station:DISL:DISL:1,2016-01-04T05:30:00Z,30.2513,-88.0778,9.89,1111122 
DISL,ioos:station:DISL:DISL:1,2016-01-04T06:00:00Z,30.2513,-88.0778,9.72,1111122 
DISL,ioos:station:DISL:DISL:1,2016-01-04T06:30:00Z,30.2513,-88.0778,9.2,1111122 
DISL,ioos:station:DISL:DISL:1,2016-01-04T07:00:00Z,30.2513,-88.0778,9.21,1111122 
DISL,ioos:station:DISL:DISL:1,2016-01-04T07:30:00Z,30.2513,-88.0778,9.25,1111122 
DISL,ioos:station:DISL:DISL:1,2016-01-04T08:00:00Z,30.2513,-88.0778,9.29,1111122 
DISL,ioos:station:DISL:DISL:1,2016-01-04T08:30:00Z,30.2513,-88.0778,9.15,1111122 
DISL,ioos:station:DISL:DISL:1,2016-01-04T09:00:00Z,30.2513,-88.0778,8.91,1111122 
DISL,ioos:station:DISL:DISL:1,2016-01-04T09:30:00Z,30.2513,-88.0778,8.67,1111122 
DISL,ioos:station:DISL:DISL:1,2016-01-04T10:00:00Z,30.2513,-88.0778,8.81,1111122 
DISL,ioos:station:DISL:DISL:1,2016-01-04T10:30:00Z,30.2513,-88.0778,9.11,1111122 
DISL,ioos:station:DISL:DISL:1,2016-01-04T11:00:00Z,30.2513,-88.0778,9.25,1111122 
DISL,ioos:station:DISL:DISL:1,2016-01-04T11:30:00Z,30.2513,-88.0778,8.98,1111122 
DISL,ioos:station:DISL:DISL:1,2016-01-04T12:00:00Z,30.2513,-88.0778,8.67,1111122 
DISL,ioos:station:DISL:DISL:1,2016-01-04T12:30:00Z,30.2513,-88.0778,7.431,1111122 
DISL,ioos:station:DISL:DISL:1,2016-01-04T13:00:00Z,30.2513,-88.0778,7.301,1111122 
DISL,ioos:station:DISL:DISL:1,2016-01-04T13:30:00Z,30.2513,-88.0778,7.681,1111122 
DISL,ioos:station:DISL:DISL:1,2016-01-04T14:00:00Z,30.2513,-88.0778,7.541,1111122 
DISL,ioos:station:DISL:DISL:1,2016-01-04T14:30:00Z,30.2513,-88.0778,7.637,1111122 
DISL,ioos:station:DISL:DISL:1,2016-01-04T15:00:00Z,30.2513,-88.0778,8.29,1111122 
DISL,ioos:station:DISL:DISL:1,2016-01-04T15:30:00Z,30.2513,-88.0778,8.14,1111122 
DISL,ioos:station:DISL:DISL:1,2016-01-04T16:00:00Z,30.2513,-88.0778,8.1,1111122 
DISL,ioos:station:DISL:DISL:1,2016-01-04T16:30:00Z,30.2513,-88.0778,8.17,1111122 
DISL,ioos:station:DISL:DISL:1,2016-01-04T17:00:00Z,30.2513,-88.0778,8.65,1111122 
DISL,ioos:station:DISL:DISL:1,2016-01-04T17:30:00Z,30.2513,-88.0778,8.65,1111122 
DISL,ioos:station:DISL:DISL:1,2016-01-04T18:00:00Z,30.2513,-88.0778,9.34,1111122 
DISL,ioos:station:DISL:DISL:1,2016-01-04T18:30:00Z,30.2513,-88.0778,9.98,1111122 
DISL,ioos:station:DISL:DISL:1,2016-01-04T19:00:00Z,30.2513,-88.0778,10.56,1111122 
DISL,ioos:station:DISL:DISL:1,2016-01-04T19:30:00Z,30.2513,-88.0778,11.14,1111122 
DISL,ioos:station:DISL:DISL:1,2016-01-04T20:00:00Z,30.2513,-88.0778,11.57,1111122 
DISL,ioos:station:DISL:DISL:1,2016-01-04T20:30:00Z,30.2513,-88.0778,11.78,1111122 
DISL,ioos:station:DISL:DISL:1,2016-01-04T21:00:00Z,30.2513,-88.0778,11.85,1111122 
DISL,ioos:station:DISL:DISL:1,2016-01-04T21:30:00Z,30.2513,-88.0778,11.98,1111122 
DISL,ioos:station:DISL:DISL:1,2016-01-04T22:00:00Z,30.2513,-88.0778,12.05,1111122 
DISL,ioos:station:DISL:DISL:1,2016-01-04T22:30:00Z,30.2513,-88.0778,11.74,1111122 
DISL,ioos:station:DISL:DISL:1,2016-01-04T23:00:00Z,30.2513,-88.0778,11.38,1111122 
DISL,ioos:station:DISL:DISL:1,2016-01-04T23:30:00Z,30.2513,-88.0778,11.07,1111122 
DISL,ioos:station:DISL:DISL:1,2016-01-05T00:00:00Z,30.2513,-88.0778,10.63,1111122 
DISL,ioos:station:DISL:DISL:1,2016-01-05T00:30:00Z,30.2513,-88.0778,10.16,1111122 
DISL,ioos:station:DISL:DISL:1,2016-01-05T01:00:00Z,30.2513,-88.0778,9.61,1111122 
DISL,ioos:station:DISL:DISL:1,2016-01-05T01:30:00Z,30.2513,-88.0778,9.58,1111122 
DISL,ioos:station:DISL:DISL:1,2016-01-05T02:00:00Z,30.2513,-88.0778,9.2,1111122 
DISL,ioos:station:DISL:DISL:1,2016-01-05T02:30:00Z,30.2513,-88.0778,9.08,1111122 
DISL,ioos:station:DISL:DISL:1,2016-01-05T03:00:00Z,30.2513,-88.0778,8.63,1111122 
DISL,ioos:station:DISL:DISL:1,2016-01-05T03:30:00Z,30.2513,-88.0778,8.53,1111122 
DISL,ioos:station:DISL:DISL:1,2016-01-05T04:00:00Z,30.2513,-88.0778,7.981,1111122 
DISL,ioos:station:DISL:DISL:1,2016-01-05T04:30:00Z,30.2513,-88.0778,7.884,1111122 
DISL,ioos:station:DISL:DISL:1,2016-01-05T05:00:00Z,30.2513,-88.0778,7.164,1111122 
DISL,ioos:station:DISL:DISL:1,2016-01-05T05:30:00Z,30.2513,-88.0778,7.103,1111122 
DISL,ioos:station:DISL:DISL:1,2016-01-05T06:00:00Z,30.2513,-88.0778,6.553,1111122 
DISL,ioos:station:DISL:DISL:1,2016-01-05T06:30:00Z,30.2513,-88.0778,6.278,1111122 
DISL,ioos:station:DISL:DISL:1,2016-01-05T07:00:00Z,30.2513,-88.0778,6.279,1111122 
DISL,ioos:station:DISL:DISL:1,2016-01-05T07:30:00Z,30.2513,-88.0778,5.494,1111122 
DISL,ioos:station:DISL:DISL:1,2016-01-05T08:00:00Z,30.2513,-88.0778,5.468,1111122 
DISL,ioos:station:DISL:DISL:1,2016-01-05T08:30:00Z,30.2513,-88.0778,4.953,1111122 
DISL,ioos:station:DISL:DISL:1,2016-01-05T09:00:00Z,30.2513,-88.0778,4.678,1111122 
DISL,ioos:station:DISL:DISL:1,2016-01-05T09:30:00Z,30.2513,-88.0778,4.37,1111122 
DISL,ioos:station:DISL:DISL:1,2016-01-05T10:00:00Z,30.2513,-88.0778,4.197,1111122 
DISL,ioos:station:DISL:DISL:1,2016-01-05T10:30:00Z,30.2513,-88.0778,4.306,1111122 
DISL,ioos:station:DISL:DISL:1,2016-01-05T11:00:00Z,30.2513,-88.0778,4.376,1111122 
DISL,ioos:station:DISL:DISL:1,2016-01-05T11:30:00Z,30.2513,-88.0778,4.171,1111122 
DISL,ioos:station:DISL:DISL:1,2016-01-05T12:00:00Z,30.2513,-88.0778,4.275,1111122 
DISL,ioos:station:DISL:DISL:1,2016-01-05T12:30:00Z,30.2513,-88.0778,4.244,1111122 
DISL,ioos:station:DISL:DISL:1,2016-01-05T13:00:00Z,30.2513,-88.0778,4.311,1111122 
DISL,ioos:station:DISL:DISL:1,2016-01-05T13:30:00Z,30.2513,-88.0778,5.096,1111122 
DISL,ioos:station:DISL:DISL:1,2016-01-05T14:00:00Z,30.2513,-88.0778,4.713,1111122 
DISL,ioos:station:DISL:DISL:1,2016-01-05T14:30:00Z,30.2513,-88.0778,5.599,1111122 
DISL,ioos:station:DISL:DISL:1,2016-01-05T15:00:00Z,30.2513,-88.0778,5.797,1111122 
DISL,ioos:station:DISL:DISL:1,2016-01-05T15:30:00Z,30.2513,-88.0778,6.346,1111122 
DISL,ioos:station:DISL:DISL:1,2016-01-05T16:00:00Z,30.2513,-88.0778,6.888,1111122 
DISL,ioos:station:DISL:DISL:1,2016-01-05T16:30:00Z,30.2513,-88.0778,7.706,1111122 
DISL,ioos:station:DISL:DISL:1,2016-01-05T17:00:00Z,30.2513,-88.0778,8.24,1111122 
DISL,ioos:station:DISL:DISL:1,2016-01-05T17:30:00Z,30.2513,-88.0778,9.17,1111122 
DISL,ioos:station:DISL:DISL:1,2016-01-05T18:00:00Z,30.2513,-88.0778,9.27,1111122 
DISL,ioos:station:DISL:DISL:1,2016-01-05T18:30:00Z,30.2513,-88.0778,9.53,1111122 
DISL,ioos:station:DISL:DISL:1,2016-01-05T19:00:00Z,30.2513,-88.0778,9.87,1111122 
DISL,ioos:station:DISL:DISL:1,2016-01-05T19:30:00Z,30.2513,-88.0778,10.3,1111122 
DISL,ioos:station:DISL:DISL:1,2016-01-05T20:00:00Z,30.2513,-88.0778,10.75,1111122 
DISL,ioos:station:DISL:DISL:1,2016-01-05T20:30:00Z,30.2513,-88.0778,11.23,1111122 
DISL,ioos:station:DISL:DISL:1,2016-01-05T21:00:00Z,30.2513,-88.0778,11.57,1111122 
DISL,ioos:station:DISL:DISL:1,2016-01-05T21:30:00Z,30.2513,-88.0778,11.67,1111122 
DISL,ioos:station:DISL:DISL:1,2016-01-05T22:00:00Z,30.2513,-88.0778,11.71,1111122 
DISL,ioos:station:DISL:DISL:1,2016-01-05T22:30:00Z,30.2513,-88.0778,11.71,1111122 
DISL,ioos:station:DISL:DISL:1,2016-01-05T23:00:00Z,30.2513,-88.0778,11.66,1111122 
DISL,ioos:station:DISL:DISL:1,2016-01-05T23:30:00Z,30.2513,-88.0778,11.42,1111122 
DISL,ioos:station:DISL:DISL:1,2016-01-06T00:00:00Z,30.2513,-88.0778,11.19,1111122 
DISL,ioos:station:DISL:DISL:1,2016-01-06T00:30:00Z,30.2513,-88.0778,10.88,1111122 
DISL,ioos:station:DISL:DISL:1,2016-01-06T01:00:00Z,30.2513,-88.0778,10.64,1111122 
DISL,ioos:station:DISL:DISL:1,2016-01-06T01:30:00Z,30.2513,-88.0778,10.23,1111122 
DISL,ioos:station:DISL:DISL:1,2016-01-06T02:00:00Z,30.2513,-88.0778,9.79,1111122 
DISL,ioos:station:DISL:DISL:1,2016-01-06T02:30:00Z,30.2513,-88.0778,9.48,1111122 
DISL,ioos:station:DISL:DISL:1,2016-01-06T03:00:00Z,30.2513,-88.0778,9.27,1111122 
DISL,ioos:station:DISL:DISL:1,2016-01-06T03:30:00Z,30.2513,-88.0778,8.77,1111122 
DISL,ioos:station:DISL:DISL:1,2016-01-06T04:00:00Z,30.2513,-88.0778,8.7,1111122 
DISL,ioos:station:DISL:DISL:1,2016-01-06T04:30:00Z,30.2513,-88.0778,8.67,1111122 
DISL,ioos:station:DISL:DISL:1,2016-01-06T05:00:00Z,30.2513,-88.0778,8.46,1111122 
DISL,ioos:station:DISL:DISL:1,2016-01-06T05:30:00Z,30.2513,-88.0778,8.22,1111122 
DISL,ioos:station:DISL:DISL:1,2016-01-06T06:00:00Z,30.2513,-88.0778,8.32,1111122 
DISL,ioos:station:DISL:DISL:1,2016-01-06T06:30:00Z,30.2513,-88.0778,7.815,1111122 
DISL,ioos:station:DISL:DISL:1,2016-01-06T07:00:00Z,30.2513,-88.0778,7.576,1111122 
DISL,ioos:station:DISL:DISL:1,2016-01-06T07:30:00Z,30.2513,-88.0778,7.405,1111122 
DISL,ioos:station:DISL:DISL:1,2016-01-06T08:00:00Z,30.2513,-88.0778,7.239,1111122 
DISL,ioos:station:DISL:DISL:1,2016-01-06T08:30:00Z,30.2513,-88.0778,7.309,1111122 
DISL,ioos:station:DISL:DISL:1,2016-01-06T09:00:00Z,30.2513,-88.0778,7.585,1111122 
DISL,ioos:station:DISL:DISL:1,2016-01-06T09:30:00Z,30.2513,-88.0778,7.31,1111122 
DISL,ioos:station:DISL:DISL:1,2016-01-06T10:00:00Z,30.2513,-88.0778,7.103,1111122 
DISL,ioos:station:DISL:DISL:1,2016-01-06T10:30:00Z,30.2513,-88.0778,7.241,1111122 
DISL,ioos:station:DISL:DISL:1,2016-01-06T11:00:00Z,30.2513,-88.0778,7.31,1111122 
DISL,ioos:station:DISL:DISL:1,2016-01-06T11:30:00Z,30.2513,-88.0778,7.206,1111122 
DISL,ioos:station:DISL:DISL:1,2016-01-06T12:00:00Z,30.2513,-88.0778,7.069,1111122 
DISL,ioos:station:DISL:DISL:1,2016-01-06T12:30:00Z,30.2513,-88.0778,7.378,1111122 
DISL,ioos:station:DISL:DISL:1,2016-01-06T13:00:00Z,30.2513,-88.0778,7.275,1111122 
DISL,ioos:station:DISL:DISL:1,2016-01-06T13:30:00Z,30.2513,-88.0778,7.31,1111122 
DISL,ioos:station:DISL:DISL:1,2016-01-06T14:00:00Z,30.2513,-88.0778,7.371,1111122 
DISL,ioos:station:DISL:DISL:1,2016-01-06T14:30:00Z,30.2513,-88.0778,7.638,1111122 
DISL,ioos:station:DISL:DISL:1,2016-01-06T15:00:00Z,30.2513,-88.0778,8.29,1111122 
DISL,ioos:station:DISL:DISL:1,2016-01-06T15:30:00Z,30.2513,-88.0778,8.55,1111122 
DISL,ioos:station:DISL:DISL:1,2016-01-06T16:00:00Z,30.2513,-88.0778,9.41,1111122 
DISL,ioos:station:DISL:DISL:1,2016-01-06T16:30:00Z,30.2513,-88.0778,10.02,1111122 
DISL,ioos:station:DISL:DISL:1,2016-01-06T17:00:00Z,30.2513,-88.0778,10.56,1111122 
DISL,ioos:station:DISL:DISL:1,2016-01-06T17:30:00Z,30.2513,-88.0778,11.1,1111122 
DISL,ioos:station:DISL:DISL:1,2016-01-06T18:00:00Z,30.2513,-88.0778,11.3,1111122 
DISL,ioos:station:DISL:DISL:1,2016-01-06T18:30:00Z,30.2513,-88.0778,11.81,1111122 
DISL,ioos:station:DISL:DISL:1,2016-01-06T19:00:00Z,30.2513,-88.0778,12.01,1111122 
DISL,ioos:station:DISL:DISL:1,2016-01-06T19:30:00Z,30.2513,-88.0778,12.31,1111122 
DISL,ioos:station:DISL:DISL:1,2016-01-06T20:00:00Z,30.2513,-88.0778,12.58,1111122 
DISL,ioos:station:DISL:DISL:1,2016-01-06T20:30:00Z,30.2513,-88.0778,12.96,1111122 
DISL,ioos:station:DISL:DISL:1,2016-01-06T21:00:00Z,30.2513,-88.0778,13.13,1111122 
DISL,ioos:station:DISL:DISL:1,2016-01-06T21:30:00Z,30.2513,-88.0778,13.34,1111122 
DISL,ioos:station:DISL:DISL:1,2016-01-06T22:00:00Z,30.2513,-88.0778,13.41,1111122 
DISL,ioos:station:DISL:DISL:1,2016-01-06T22:30:00Z,30.2513,-88.0778,13.13,1111122 
DISL,ioos:station:DISL:DISL:1,2016-01-06T23:00:00Z,30.2513,-88.0778,12.84,1111122 
DISL,ioos:station:DISL:DISL:1,2016-01-06T23:30:00Z,30.2513,-88.0778,12.81,1111122 
DISL,ioos:station:DISL:DISL:1,2016-01-07T00:00:00Z,30.2513,-88.0778,12.69,1111122 
DISL,ioos:station:DISL:DISL:1,2016-01-07T00:30:00Z,30.2513,-88.0778,12.65,1111122 
DISL,ioos:station:DISL:DISL:1,2016-01-07T01:00:00Z,30.2513,-88.0778,12.76,1111122 
DISL,ioos:station:DISL:DISL:1,2016-01-07T01:30:00Z,30.2513,-88.0778,12.83,1111122 
DISL,ioos:station:DISL:DISL:1,2016-01-07T02:00:00Z,30.2513,-88.0778,12.76,1111122 
DISL,ioos:station:DISL:DISL:1,2016-01-07T02:30:00Z,30.2513,-88.0778,12.48,1111122 
DISL,ioos:station:DISL:DISL:1,2016-01-07T03:00:00Z,30.2513,-88.0778,12.65,1111122 
DISL,ioos:station:DISL:DISL:1,2016-01-07T03:30:00Z,30.2513,-88.0778,12.1,1111122 
DISL,ioos:station:DISL:DISL:1,2016-01-07T04:00:00Z,30.2513,-88.0778,12.11,1111122 
DISL,ioos:station:DISL:DISL:1,2016-01-07T04:30:00Z,30.2513,-88.0778,11.83,1111122 
DISL,ioos:station:DISL:DISL:1,2016-01-07T05:00:00Z,30.2513,-88.0778,11.38,1111122 
DISL,ioos:station:DISL:DISL:1,2016-01-07T05:30:00Z,30.2513,-88.0778,11.08,1111122 
DISL,ioos:station:DISL:DISL:1,2016-01-07T06:00:00Z,30.2513,-88.0778,10.78,1111122 
DISL,ioos:station:DISL:DISL:1,2016-01-07T06:30:00Z,30.2513,-88.0778,10.78,1111122 
DISL,ioos:station:DISL:DISL:1,2016-01-07T07:00:00Z,30.2513,-88.0778,10.58,1111122 